Year,Month,Day,Hour,Minute,Value (Times are PST for temperature in C)
2008,07,11,00,10,12.00
2008,07,11,00,11,12.00
2008,07,11,00,12,12.00
2008,07,11,00,13,12.00
2008,07,11,00,14,12.00
2008,07,11,00,15,12.00
2008,07,11,00,16,12.00
2008,07,11,00,17,12.00
2008,07,11,00,18,12.00
2008,07,11,00,19,12.00
2008,07,11,00,20,12.00
2008,07,11,00,21,12.00
2008,07,11,00,22,12.00
2008,07,11,00,23,12.00
2008,07,11,00,24,12.00
2008,07,11,00,25,11.40
2008,07,11,00,26,11.40
2008,07,11,00,27,11.40
2008,07,11,00,28,11.40
2008,07,11,00,29,11.40
2008,07,11,00,30,11.40
2008,07,11,00,31,11.40
2008,07,11,00,32,11.40
2008,07,11,00,33,11.40
2008,07,11,00,34,11.40
2008,07,11,00,35,11.40
2008,07,11,00,36,11.40
2008,07,11,00,37,11.40
2008,07,11,00,38,11.40
2008,07,11,00,39,11.40
2008,07,11,00,40,10.80
2008,07,11,00,41,10.80
2008,07,11,00,42,10.80
2008,07,11,00,43,10.80
2008,07,11,00,44,10.80
2008,07,11,00,45,10.80
2008,07,11,00,46,10.80
2008,07,11,00,47,10.80
2008,07,11,00,48,10.80
2008,07,11,00,50,10.80
2008,07,11,00,51,10.80
2008,07,11,00,52,10.80
2008,07,11,00,53,10.80
2008,07,11,00,54,10.80
2008,07,11,00,55,10.70
2008,07,11,00,56,10.70
2008,07,11,00,57,10.70
2008,07,11,00,58,10.70
2008,07,11,00,59,10.70
2008,07,11,01,00,10.70
2008,07,11,01,01,10.70
2008,07,11,01,02,10.70
2008,07,11,01,03,10.70
2008,07,11,01,04,10.70
2008,07,11,01,05,10.70
2008,07,11,01,06,10.70
2008,07,11,01,07,10.70
2008,07,11,01,08,10.70
2008,07,11,01,09,10.70
2008,07,11,01,10,10.70
2008,07,11,01,11,10.70
2008,07,11,01,12,10.70
2008,07,11,01,13,10.70
2008,07,11,01,14,10.70
2008,07,11,01,15,10.70
2008,07,11,01,16,10.70
2008,07,11,01,17,10.70
2008,07,11,01,18,10.70
2008,07,11,01,19,10.70
2008,07,11,01,20,10.70
2008,07,11,01,21,10.70
2008,07,11,01,22,10.70
2008,07,11,01,23,10.70
2008,07,11,01,24,10.70
2008,07,11,01,25,10.40
2008,07,11,01,26,10.40
2008,07,11,01,27,10.40
2008,07,11,01,28,10.40
2008,07,11,01,29,10.40
2008,07,11,01,30,10.40
2008,07,11,01,31,10.40
2008,07,11,01,32,10.40
2008,07,11,01,33,10.40
2008,07,11,01,34,10.40
2008,07,11,01,35,10.40
2008,07,11,01,36,10.40
2008,07,11,01,37,10.40
2008,07,11,01,38,10.40
2008,07,11,01,39,10.40
2008,07,11,01,40,10.30
2008,07,11,01,41,10.30
2008,07,11,01,42,10.30
2008,07,11,01,43,10.30
2008,07,11,01,44,10.30
2008,07,11,01,45,10.30
2008,07,11,01,46,10.30
2008,07,11,01,47,10.30
2008,07,11,01,48,10.30
2008,07,11,01,49,10.30
2008,07,11,01,50,10.30
2008,07,11,01,51,10.30
2008,07,11,01,52,10.30
2008,07,11,01,53,10.30
2008,07,11,01,54,10.30
2008,07,11,01,55,10.20
2008,07,11,01,56,10.20
2008,07,11,01,57,10.20
2008,07,11,01,58,10.20
2008,07,11,01,59,10.20
2008,07,11,02,00,10.20
2008,07,11,02,01,10.20
2008,07,11,02,02,10.20
2008,07,11,02,03,10.20
2008,07,11,02,04,10.20
2008,07,11,02,05,10.20
2008,07,11,02,06,10.20
2008,07,11,02,07,10.20
2008,07,11,02,08,10.20
2008,07,11,02,09,10.20
2008,07,11,02,10,10.10
2008,07,11,02,11,10.10
2008,07,11,02,12,10.10
2008,07,11,02,13,10.10
2008,07,11,02,15,10.10
2008,07,11,02,16,10.10
2008,07,11,02,17,10.10
2008,07,11,02,18,10.10
2008,07,11,02,19,10.10
2008,07,11,02,20,10.10
2008,07,11,02,21,10.10
2008,07,11,02,22,10.10
2008,07,11,02,23,10.10
2008,07,11,02,24,10.10
2008,07,11,02,25,10.00
2008,07,11,02,26,10.00
2008,07,11,02,27,10.00
2008,07,11,02,28,10.00
2008,07,11,02,29,10.00
2008,07,11,02,30,10.00
2008,07,11,02,31,10.00
2008,07,11,02,32,10.00
2008,07,11,02,33,10.00
2008,07,11,02,34,10.00
2008,07,11,02,35,10.00
2008,07,11,02,36,10.00
2008,07,11,02,37,10.00
2008,07,11,02,38,10.00
2008,07,11,02,39,10.00
2008,07,11,02,40,10.00
2008,07,11,02,41,9.90
2008,07,11,02,42,9.90
2008,07,11,02,43,9.90
2008,07,11,02,44,9.90
2008,07,11,02,45,9.90
2008,07,11,02,46,9.90
2008,07,11,02,47,9.90
2008,07,11,02,48,9.90
2008,07,11,02,50,9.90
2008,07,11,02,51,9.90
2008,07,11,02,52,9.90
2008,07,11,02,53,9.90
2008,07,11,02,54,9.90
2008,07,11,02,55,9.90
2008,07,11,02,56,9.80
2008,07,11,02,57,9.80
2008,07,11,02,58,9.80
2008,07,11,02,59,9.80
2008,07,11,03,00,9.80
2008,07,11,03,01,9.80
2008,07,11,03,02,9.80
2008,07,11,03,03,9.80
2008,07,11,03,04,9.80
2008,07,11,03,05,9.80
2008,07,11,03,06,9.80
2008,07,11,03,07,9.80
2008,07,11,03,08,9.80
2008,07,11,03,09,9.80
2008,07,11,03,10,9.80
2008,07,11,03,11,9.80
2008,07,11,03,12,9.70
2008,07,11,03,13,9.70
2008,07,11,03,14,9.70
2008,07,11,03,15,9.70
2008,07,11,03,16,9.70
2008,07,11,03,17,9.70
2008,07,11,03,18,9.70
2008,07,11,03,19,9.70
2008,07,11,03,20,9.70
2008,07,11,03,21,9.70
2008,07,11,03,22,9.70
2008,07,11,03,23,9.70
2008,07,11,03,24,9.70
2008,07,11,03,25,9.70
2008,07,11,03,26,9.70
2008,07,11,03,27,9.60
2008,07,11,03,28,9.60
2008,07,11,03,29,9.60
2008,07,11,03,30,9.60
2008,07,11,03,31,9.60
2008,07,11,03,32,9.60
2008,07,11,03,33,9.60
2008,07,11,03,34,9.60
2008,07,11,03,35,9.60
2008,07,11,03,36,9.60
2008,07,11,03,37,9.60
2008,07,11,03,38,9.60
2008,07,11,03,40,9.60
2008,07,11,03,41,9.60
2008,07,11,03,42,9.60
2008,07,11,03,43,9.60
2008,07,11,03,44,9.60
2008,07,11,03,45,9.60
2008,07,11,03,46,9.60
2008,07,11,03,47,9.60
2008,07,11,03,48,9.60
2008,07,11,03,49,9.60
2008,07,11,03,50,9.60
2008,07,11,03,51,9.60
2008,07,11,03,52,9.60
2008,07,11,03,53,9.60
2008,07,11,03,54,9.60
2008,07,11,03,55,9.60
2008,07,11,03,56,9.60
2008,07,11,03,57,9.60
2008,07,11,03,58,9.60
2008,07,11,04,00,9.60
2008,07,11,04,01,9.60
2008,07,11,04,02,9.60
2008,07,11,04,03,9.60
2008,07,11,04,04,9.60
2008,07,11,04,05,9.60
2008,07,11,04,06,9.60
2008,07,11,04,07,9.60
2008,07,11,04,08,9.60
2008,07,11,04,09,9.60
2008,07,11,04,10,9.60
2008,07,11,04,11,9.60
2008,07,11,04,12,9.60
2008,07,11,04,13,9.60
2008,07,11,04,14,9.40
2008,07,11,04,15,9.40
2008,07,11,04,16,9.40
2008,07,11,04,17,9.40
2008,07,11,04,18,9.40
2008,07,11,04,19,9.40
2008,07,11,04,20,9.40
2008,07,11,04,21,9.40
2008,07,11,04,22,9.40
2008,07,11,04,23,9.40
2008,07,11,04,24,9.40
2008,07,11,04,25,9.40
2008,07,11,04,27,9.40
2008,07,11,04,28,9.40
2008,07,11,04,29,9.50
2008,07,11,04,30,9.50
2008,07,11,04,31,9.50
2008,07,11,04,32,9.50
2008,07,11,04,33,9.50
2008,07,11,04,34,9.50
2008,07,11,04,35,9.50
2008,07,11,04,37,9.50
2008,07,11,04,38,9.50
2008,07,11,04,39,9.50
2008,07,11,04,41,9.50
2008,07,11,04,42,9.50
2008,07,11,04,43,9.50
2008,07,11,04,44,9.50
2008,07,11,04,45,9.60
2008,07,11,04,46,9.60
2008,07,11,04,47,9.60
2008,07,11,04,48,9.60
2008,07,11,04,49,9.60
2008,07,11,04,50,9.60
2008,07,11,04,51,9.60
2008,07,11,04,52,9.60
2008,07,11,04,53,9.60
2008,07,11,04,54,9.60
2008,07,11,04,55,9.60
2008,07,11,04,56,9.60
2008,07,11,04,57,9.60
2008,07,11,04,58,9.60
2008,07,11,04,59,9.60
2008,07,11,05,00,9.60
2008,07,11,05,01,9.60
2008,07,11,05,02,9.60
2008,07,11,05,03,9.60
2008,07,11,05,04,9.60
2008,07,11,05,05,9.60
2008,07,11,05,06,9.60
2008,07,11,05,07,9.60
2008,07,11,05,08,9.60
2008,07,11,05,09,9.60
2008,07,11,05,11,9.60
2008,07,11,05,13,9.60
2008,07,11,05,14,9.60
2008,07,11,05,15,9.60
2008,07,11,05,16,9.50
2008,07,11,05,17,9.50
2008,07,11,05,18,9.50
2008,07,11,05,19,9.50
2008,07,11,05,20,9.50
2008,07,11,05,21,9.50
2008,07,11,05,22,9.50
2008,07,11,05,23,9.50
2008,07,11,05,24,9.50
2008,07,11,05,25,9.50
2008,07,11,05,26,9.50
2008,07,11,05,27,9.50
2008,07,11,05,28,9.50
2008,07,11,05,29,9.50
2008,07,11,05,30,9.50
2008,07,11,05,31,9.50
2008,07,11,05,32,9.50
2008,07,11,05,33,9.50
2008,07,11,05,34,9.50
2008,07,11,05,35,9.50
2008,07,11,05,36,9.50
2008,07,11,05,37,9.50
2008,07,11,05,38,9.50
2008,07,11,05,39,9.50
2008,07,11,05,40,9.50
2008,07,11,05,41,9.50
2008,07,11,05,42,9.50
2008,07,11,05,43,9.50
2008,07,11,05,44,9.50
2008,07,11,05,45,9.50
2008,07,11,05,46,9.50
2008,07,11,05,47,9.40
2008,07,11,05,48,9.40
2008,07,11,05,49,9.40
2008,07,11,05,50,9.40
2008,07,11,05,51,9.40
2008,07,11,05,52,9.40
2008,07,11,05,53,9.40
2008,07,11,05,54,9.40
2008,07,11,05,55,9.40
2008,07,11,05,56,9.40
2008,07,11,05,57,9.40
2008,07,11,05,58,9.40
2008,07,11,05,59,9.40
2008,07,11,06,00,9.40
2008,07,11,06,01,9.40
2008,07,11,06,02,9.40
2008,07,11,06,03,9.40
2008,07,11,06,04,9.40
2008,07,11,06,05,9.40
2008,07,11,06,06,9.40
2008,07,11,06,07,9.40
2008,07,11,06,08,9.40
2008,07,11,06,09,9.40
2008,07,11,06,10,9.40
2008,07,11,06,11,9.40
2008,07,11,06,12,9.40
2008,07,11,06,13,9.40
2008,07,11,06,14,9.40
2008,07,11,06,15,9.40
2008,07,11,06,16,9.40
2008,07,11,06,17,9.70
2008,07,11,06,18,9.70
2008,07,11,06,19,9.70
2008,07,11,06,20,9.70
2008,07,11,06,21,9.70
2008,07,11,06,22,9.70
2008,07,11,06,23,9.70
2008,07,11,06,24,9.70
2008,07,11,06,25,9.70
2008,07,11,06,26,9.70
2008,07,11,06,27,9.70
2008,07,11,06,28,9.70
2008,07,11,06,29,9.70
2008,07,11,06,30,9.70
2008,07,11,06,31,9.70
2008,07,11,06,32,9.70
2008,07,11,06,33,9.80
2008,07,11,06,34,9.80
2008,07,11,06,35,9.80
2008,07,11,06,36,9.80
2008,07,11,06,37,9.80
2008,07,11,06,38,9.80
2008,07,11,06,39,9.80
2008,07,11,06,40,9.80
2008,07,11,06,41,9.80
2008,07,11,06,42,9.80
2008,07,11,06,43,9.80
2008,07,11,06,44,9.80
2008,07,11,06,45,9.80
2008,07,11,06,46,9.80
2008,07,11,06,47,9.80
2008,07,11,06,48,9.80
2008,07,11,06,49,10.10
2008,07,11,06,50,10.10
2008,07,11,06,51,10.10
2008,07,11,06,52,10.10
2008,07,11,06,53,10.10
2008,07,11,06,54,10.10
2008,07,11,06,55,10.10
2008,07,11,06,57,10.10
2008,07,11,06,58,10.10
2008,07,11,06,59,10.10
2008,07,11,07,00,10.10
2008,07,11,07,01,10.10
2008,07,11,07,02,10.10
2008,07,11,07,03,10.10
2008,07,11,07,04,10.40
2008,07,11,07,05,10.40
2008,07,11,07,06,10.40
2008,07,11,07,07,10.40
2008,07,11,07,08,10.40
2008,07,11,07,09,10.40
2008,07,11,07,10,10.40
2008,07,11,07,11,10.40
2008,07,11,07,12,10.40
2008,07,11,07,13,10.40
2008,07,11,07,15,10.40
2008,07,11,07,16,10.40
2008,07,11,07,17,10.40
2008,07,11,07,18,10.40
2008,07,11,07,19,10.40
2008,07,11,07,20,10.90
2008,07,11,07,21,10.90
2008,07,11,07,22,10.90
2008,07,11,07,23,10.90
2008,07,11,07,24,10.90
2008,07,11,07,25,10.90
2008,07,11,07,26,10.90
2008,07,11,07,27,10.90
2008,07,11,07,28,10.90
2008,07,11,07,29,10.90
2008,07,11,07,30,10.90
2008,07,11,07,31,10.90
2008,07,11,07,32,10.90
2008,07,11,07,33,10.90
2008,07,11,07,34,10.90
2008,07,11,07,35,11.70
2008,07,11,07,36,11.70
2008,07,11,07,37,11.70
2008,07,11,07,38,11.70
2008,07,11,07,39,11.70
2008,07,11,07,40,11.70
2008,07,11,07,41,11.70
2008,07,11,07,42,11.70
2008,07,11,07,43,11.70
2008,07,11,07,44,11.70
2008,07,11,07,45,11.70
2008,07,11,07,46,11.70
2008,07,11,07,47,11.70
2008,07,11,07,48,11.70
2008,07,11,07,49,11.70
2008,07,11,07,50,11.70
2008,07,11,07,51,12.20
2008,07,11,07,52,12.20
2008,07,11,07,53,12.20
2008,07,11,07,54,12.20
2008,07,11,07,55,12.20
2008,07,11,07,56,12.20
2008,07,11,07,57,12.20
2008,07,11,07,58,12.20
2008,07,11,07,59,12.20
2008,07,11,08,00,12.20
2008,07,11,08,01,12.20
2008,07,11,08,02,12.20
2008,07,11,08,03,12.20
2008,07,11,08,04,12.20
2008,07,11,08,05,12.20
2008,07,11,08,06,12.80
2008,07,11,08,07,12.80
2008,07,11,08,08,12.80
2008,07,11,08,09,12.80
2008,07,11,08,10,12.80
2008,07,11,08,11,12.80
2008,07,11,08,12,12.80
2008,07,11,08,13,12.80
2008,07,11,08,14,12.80
2008,07,11,08,15,12.80
2008,07,11,08,16,12.80
2008,07,11,08,17,12.80
2008,07,11,08,18,12.80
2008,07,11,08,19,12.80
2008,07,11,08,21,12.80
2008,07,11,08,22,12.80
2008,07,11,08,23,12.80
2008,07,11,08,24,12.80
2008,07,11,08,25,12.80
2008,07,11,08,26,12.80
2008,07,11,08,27,12.80
2008,07,11,08,28,12.80
2008,07,11,08,29,12.80
2008,07,11,08,30,12.80
2008,07,11,08,31,12.80
2008,07,11,08,32,12.80
2008,07,11,08,33,12.80
2008,07,11,08,34,12.80
2008,07,11,08,35,12.80
2008,07,11,08,36,12.80
2008,07,11,08,37,12.90
2008,07,11,08,38,12.90
2008,07,11,08,39,12.90
2008,07,11,08,40,12.90
2008,07,11,08,41,12.90
2008,07,11,08,42,12.90
2008,07,11,08,43,12.90
2008,07,11,08,44,12.90
2008,07,11,08,45,12.90
2008,07,11,08,46,12.90
2008,07,11,08,47,12.90
2008,07,11,08,48,12.90
2008,07,11,08,49,12.90
2008,07,11,08,50,12.90
2008,07,11,08,51,12.90
2008,07,11,08,52,12.90
2008,07,11,08,53,13.30
2008,07,11,08,54,13.30
2008,07,11,08,55,13.30
2008,07,11,08,56,13.30
2008,07,11,08,57,13.30
2008,07,11,08,58,13.30
2008,07,11,08,59,13.30
2008,07,11,09,00,13.30
2008,07,11,09,01,13.30
2008,07,11,09,02,13.30
2008,07,11,09,03,13.30
2008,07,11,09,04,13.30
2008,07,11,09,05,13.30
2008,07,11,09,06,13.30
2008,07,11,09,07,13.30
2008,07,11,09,08,12.60
2008,07,11,09,09,12.60
2008,07,11,09,10,12.60
2008,07,11,09,11,12.60
2008,07,11,09,12,12.60
2008,07,11,09,13,12.60
2008,07,11,09,14,12.60
2008,07,11,09,15,12.60
2008,07,11,09,16,12.60
2008,07,11,09,17,12.60
2008,07,11,09,18,12.60
2008,07,11,09,19,12.60
2008,07,11,09,20,12.60
2008,07,11,09,21,12.60
2008,07,11,09,22,12.60
2008,07,11,09,23,12.60
2008,07,11,09,24,13.80
2008,07,11,09,25,13.80
2008,07,11,09,26,13.80
2008,07,11,09,27,13.80
2008,07,11,09,28,13.80
2008,07,11,09,29,13.80
2008,07,11,09,30,13.80
2008,07,11,09,31,13.80
2008,07,11,09,32,13.80
2008,07,11,09,33,13.80
2008,07,11,09,34,13.80
2008,07,11,09,35,13.80
2008,07,11,09,36,13.80
2008,07,11,09,37,13.80
2008,07,11,09,38,13.80
2008,07,11,09,39,13.90
2008,07,11,09,40,13.90
2008,07,11,09,41,13.90
2008,07,11,09,42,13.90
2008,07,11,09,43,13.90
2008,07,11,09,44,13.90
2008,07,11,09,45,13.90
2008,07,11,09,46,13.90
2008,07,11,09,47,13.90
2008,07,11,09,48,13.90
2008,07,11,09,49,13.90
2008,07,11,09,50,13.90
2008,07,11,09,51,13.90
2008,07,11,09,52,13.90
2008,07,11,09,53,13.90
2008,07,11,09,54,13.90
2008,07,11,09,55,13.90
2008,07,11,09,56,13.90
2008,07,11,09,57,13.90
2008,07,11,09,58,13.90
2008,07,11,09,59,13.90
2008,07,11,10,00,13.90
2008,07,11,10,01,13.90
2008,07,11,10,02,13.90
2008,07,11,10,03,13.90
2008,07,11,10,04,13.90
2008,07,11,10,05,13.90
2008,07,11,10,06,13.90
2008,07,11,10,07,13.90
2008,07,11,10,08,13.90
2008,07,11,10,09,13.90
2008,07,11,10,10,13.80
2008,07,11,10,11,13.80
2008,07,11,10,12,13.80
2008,07,11,10,13,13.80
2008,07,11,10,14,13.80
2008,07,11,10,15,13.80
2008,07,11,10,16,13.80
2008,07,11,10,17,13.80
2008,07,11,10,18,13.80
2008,07,11,10,19,13.80
2008,07,11,10,20,13.80
2008,07,11,10,21,13.80
2008,07,11,10,22,13.80
2008,07,11,10,23,13.80
2008,07,11,10,24,13.80
2008,07,11,10,25,13.80
2008,07,11,10,26,13.90
2008,07,11,10,27,13.90
2008,07,11,10,28,13.90
2008,07,11,10,29,13.90
2008,07,11,10,30,13.90
2008,07,11,10,31,13.90
2008,07,11,10,32,13.90
2008,07,11,10,33,13.90
2008,07,11,10,34,13.90
2008,07,11,10,35,13.90
2008,07,11,10,36,13.90
2008,07,11,10,37,13.90
2008,07,11,10,38,13.90
2008,07,11,10,39,13.90
2008,07,11,10,40,13.90
2008,07,11,10,41,14.00
2008,07,11,10,42,14.00
2008,07,11,10,43,14.00
2008,07,11,10,44,14.00
2008,07,11,10,45,14.00
2008,07,11,10,46,14.00
2008,07,11,10,47,14.00
2008,07,11,10,48,14.00
2008,07,11,10,49,14.00
2008,07,11,10,50,14.00
2008,07,11,10,51,14.00
2008,07,11,10,52,14.00
2008,07,11,10,53,14.00
2008,07,11,10,54,14.00
2008,07,11,10,55,14.00
2008,07,11,10,56,14.00
2008,07,11,10,57,13.90
2008,07,11,10,58,13.90
2008,07,11,10,59,13.90
2008,07,11,11,00,13.90
2008,07,11,11,01,13.90
2008,07,11,11,02,13.90
2008,07,11,11,03,13.90
2008,07,11,11,04,13.90
2008,07,11,11,05,13.90
2008,07,11,11,06,13.90
2008,07,11,11,07,13.90
2008,07,11,11,08,13.90
2008,07,11,11,09,13.90
2008,07,11,11,10,13.90
2008,07,11,11,11,13.90
2008,07,11,11,12,14.70
2008,07,11,11,13,14.70
2008,07,11,11,14,14.70
2008,07,11,11,15,14.70
2008,07,11,11,16,14.70
2008,07,11,11,17,14.70
2008,07,11,11,18,14.70
2008,07,11,11,19,14.70
2008,07,11,11,20,14.70
2008,07,11,11,21,14.70
2008,07,11,11,22,14.70
2008,07,11,11,23,14.70
2008,07,11,11,24,14.70
2008,07,11,11,25,14.70
2008,07,11,11,26,14.70
2008,07,11,11,27,14.70
2008,07,11,11,28,14.40
2008,07,11,11,29,14.40
2008,07,11,11,30,14.40
2008,07,11,11,31,14.40
2008,07,11,11,32,14.40
2008,07,11,11,33,14.40
2008,07,11,11,34,14.40
2008,07,11,11,35,14.40
2008,07,11,11,36,14.40
2008,07,11,11,37,14.40
2008,07,11,11,38,14.40
2008,07,11,11,39,14.40
2008,07,11,11,40,14.40
2008,07,11,11,41,14.40
2008,07,11,11,42,14.40
2008,07,11,11,43,14.20
2008,07,11,11,44,14.20
2008,07,11,11,45,14.20
2008,07,11,11,47,14.20
2008,07,11,11,48,14.20
2008,07,11,11,49,14.20
2008,07,11,11,50,14.20
2008,07,11,11,51,14.20
2008,07,11,11,52,14.20
2008,07,11,11,53,14.20
2008,07,11,11,54,14.20
2008,07,11,11,55,14.20
2008,07,11,11,56,14.20
2008,07,11,11,57,14.20
2008,07,11,11,58,14.20
2008,07,11,11,59,14.60
2008,07,11,12,00,14.60
2008,07,11,12,01,14.60
2008,07,11,12,02,14.60
2008,07,11,12,03,14.60
2008,07,11,12,04,14.60
2008,07,11,12,05,14.60
2008,07,11,12,06,14.60
2008,07,11,12,07,14.60
2008,07,11,12,08,14.60
2008,07,11,12,09,14.60
2008,07,11,12,10,14.60
2008,07,11,12,11,14.60
2008,07,11,12,12,14.60
2008,07,11,12,13,14.60
2008,07,11,12,14,15.10
2008,07,11,12,15,15.10
2008,07,11,12,16,15.10
2008,07,11,12,17,15.10
2008,07,11,12,18,15.10
2008,07,11,12,19,15.10
2008,07,11,12,20,15.10
2008,07,11,12,21,15.10
2008,07,11,12,22,15.10
2008,07,11,12,23,15.10
2008,07,11,12,24,15.10
2008,07,11,12,25,15.10
2008,07,11,12,26,15.10
2008,07,11,12,27,15.10
2008,07,11,12,28,15.10
2008,07,11,12,29,15.10
2008,07,11,12,30,15.40
2008,07,11,12,31,15.40
2008,07,11,12,32,15.40
2008,07,11,12,33,15.40
2008,07,11,12,34,15.40
2008,07,11,12,35,15.40
2008,07,11,12,36,15.40
2008,07,11,12,37,15.40
2008,07,11,12,38,15.40
2008,07,11,12,39,15.40
2008,07,11,12,40,15.40
2008,07,11,12,41,15.40
2008,07,11,12,42,15.40
2008,07,11,12,43,15.40
2008,07,11,12,44,15.40
2008,07,11,12,45,15.60
2008,07,11,12,46,15.60
2008,07,11,12,48,15.60
2008,07,11,12,49,15.60
2008,07,11,12,50,15.60
2008,07,11,12,51,15.60
2008,07,11,12,52,15.60
2008,07,11,12,53,15.60
2008,07,11,12,54,15.60
2008,07,11,12,55,15.60
2008,07,11,12,56,15.60
2008,07,11,12,57,15.60
2008,07,11,12,58,15.60
2008,07,11,12,59,15.60
2008,07,11,13,00,15.60
2008,07,11,13,01,15.30
2008,07,11,13,02,15.30
2008,07,11,13,03,15.30
2008,07,11,13,04,15.30
2008,07,11,13,05,15.30
2008,07,11,13,06,15.30
2008,07,11,13,07,15.30
2008,07,11,13,08,15.30
2008,07,11,13,09,15.30
2008,07,11,13,10,15.30
2008,07,11,13,11,15.30
2008,07,11,13,12,15.30
2008,07,11,13,13,15.30
2008,07,11,13,14,15.30
2008,07,11,13,15,15.30
2008,07,11,13,16,15.30
2008,07,11,13,17,15.30
2008,07,11,13,18,15.30
2008,07,11,13,19,15.30
2008,07,11,13,20,15.30
2008,07,11,13,21,15.30
2008,07,11,13,22,15.30
2008,07,11,13,23,15.30
2008,07,11,13,24,15.30
2008,07,11,13,25,15.30
2008,07,11,13,26,15.30
2008,07,11,13,27,15.30
2008,07,11,13,28,15.30
2008,07,11,13,29,15.30
2008,07,11,13,30,15.30
2008,07,11,13,31,15.30
2008,07,11,13,32,15.50
2008,07,11,13,33,15.50
2008,07,11,13,34,15.50
2008,07,11,13,35,15.50
2008,07,11,13,36,15.50
2008,07,11,13,37,15.50
2008,07,11,13,38,15.50
2008,07,11,13,39,15.50
2008,07,11,13,40,15.50
2008,07,11,13,41,15.50
2008,07,11,13,42,15.50
2008,07,11,13,43,15.50
2008,07,11,13,44,15.50
2008,07,11,13,45,15.50
2008,07,11,13,46,15.50
2008,07,11,13,47,15.60
2008,07,11,13,48,15.60
2008,07,11,13,49,15.60
2008,07,11,13,50,15.60
2008,07,11,13,51,15.60
2008,07,11,13,52,15.60
2008,07,11,13,53,15.60
2008,07,11,13,54,15.60
2008,07,11,13,55,15.60
2008,07,11,13,56,15.60
2008,07,11,13,57,15.60
2008,07,11,13,58,15.60
2008,07,11,13,59,15.60
2008,07,11,14,00,15.60
2008,07,11,14,01,15.60
2008,07,11,14,02,15.60
2008,07,11,14,03,14.90
2008,07,11,14,04,14.90
2008,07,11,14,05,14.90
2008,07,11,14,06,14.90
2008,07,11,14,07,14.90
2008,07,11,14,08,14.90
2008,07,11,14,09,14.90
2008,07,11,14,10,14.90
2008,07,11,14,11,14.90
2008,07,11,14,12,14.90
2008,07,11,14,13,14.90
2008,07,11,14,14,14.90
2008,07,11,14,15,14.90
2008,07,11,14,16,14.90
2008,07,11,14,17,14.90
2008,07,11,14,18,15.60
2008,07,11,14,19,15.60
2008,07,11,14,20,15.60
2008,07,11,14,21,15.60
2008,07,11,14,22,15.60
2008,07,11,14,23,15.60
2008,07,11,14,24,15.60
2008,07,11,14,25,15.60
2008,07,11,14,26,15.60
2008,07,11,14,27,15.60
2008,07,11,14,28,15.60
2008,07,11,14,29,15.60
2008,07,11,14,30,15.60
2008,07,11,14,31,15.60
2008,07,11,14,32,15.60
2008,07,11,14,33,15.60
2008,07,11,14,34,16.10
2008,07,11,14,35,16.10
2008,07,11,14,36,16.10
2008,07,11,14,37,16.10
2008,07,11,14,38,16.10
2008,07,11,14,39,16.10
2008,07,11,14,40,16.10
2008,07,11,14,41,16.10
2008,07,11,14,42,16.10
2008,07,11,14,43,16.10
2008,07,11,14,44,16.10
2008,07,11,14,45,16.10
2008,07,11,14,46,16.10
2008,07,11,14,47,16.10
2008,07,11,14,48,16.10
2008,07,11,14,49,16.40
2008,07,11,14,50,16.40
2008,07,11,14,51,16.40
2008,07,11,14,52,16.40
2008,07,11,14,53,16.40
2008,07,11,14,54,16.40
2008,07,11,14,55,16.40
2008,07,11,14,56,16.40
2008,07,11,14,57,16.40
2008,07,11,14,58,16.40
2008,07,11,14,59,16.40
2008,07,11,15,00,16.40
2008,07,11,15,01,16.40
2008,07,11,15,02,16.40
2008,07,11,15,03,16.40
2008,07,11,15,04,16.40
2008,07,11,15,05,15.90
2008,07,11,15,06,15.90
2008,07,11,15,07,15.90
2008,07,11,15,08,15.90
2008,07,11,15,09,15.90
2008,07,11,15,10,15.90
2008,07,11,15,11,15.90
2008,07,11,15,12,15.90
2008,07,11,15,13,15.90
2008,07,11,15,14,15.90
2008,07,11,15,15,15.90
2008,07,11,15,16,15.90
2008,07,11,15,17,15.90
2008,07,11,15,18,15.90
2008,07,11,15,19,15.90
2008,07,11,15,20,16.80
2008,07,11,15,21,16.80
2008,07,11,15,22,16.80
2008,07,11,15,23,16.80
2008,07,11,15,24,16.80
2008,07,11,15,25,16.80
2008,07,11,15,26,16.80
2008,07,11,15,27,16.80
2008,07,11,15,28,16.80
2008,07,11,15,29,16.80
2008,07,11,15,30,16.80
2008,07,11,15,31,16.80
2008,07,11,15,32,16.80
2008,07,11,15,33,16.80
2008,07,11,15,34,16.80
2008,07,11,15,35,16.80
2008,07,11,15,36,17.80
2008,07,11,15,37,17.80
2008,07,11,15,38,17.80
2008,07,11,15,39,17.80
2008,07,11,15,40,17.80
2008,07,11,15,41,17.80
2008,07,11,15,42,17.80
2008,07,11,15,43,17.80
2008,07,11,15,44,17.80
2008,07,11,15,45,17.80
2008,07,11,15,46,17.80
2008,07,11,15,47,17.80
2008,07,11,15,48,17.80
2008,07,11,15,49,17.80
2008,07,11,15,50,17.80
2008,07,11,15,51,17.10
2008,07,11,15,52,17.10
2008,07,11,15,53,17.10
2008,07,11,15,54,17.10
2008,07,11,15,55,17.10
2008,07,11,15,56,17.10
2008,07,11,15,57,17.10
2008,07,11,15,58,17.10
2008,07,11,15,59,17.10
2008,07,11,16,00,17.10
2008,07,11,16,01,17.10
2008,07,11,16,02,17.10
2008,07,11,16,03,17.10
2008,07,11,16,04,17.10
2008,07,11,16,05,17.10
2008,07,11,16,06,17.10
2008,07,11,16,07,16.70
2008,07,11,16,08,16.70
2008,07,11,16,09,16.70
2008,07,11,16,10,16.70
2008,07,11,16,11,16.70
2008,07,11,16,12,16.70
2008,07,11,16,14,16.70
2008,07,11,16,15,16.70
2008,07,11,16,16,16.70
2008,07,11,16,17,16.70
2008,07,11,16,18,16.70
2008,07,11,16,19,16.70
2008,07,11,16,20,16.70
2008,07,11,16,21,16.70
2008,07,11,16,22,17.20
2008,07,11,16,23,17.20
2008,07,11,16,24,17.20
2008,07,11,16,25,17.20
2008,07,11,16,26,17.20
2008,07,11,16,27,17.20
2008,07,11,16,28,17.20
2008,07,11,16,29,17.20
2008,07,11,16,30,17.20
2008,07,11,16,31,17.20
2008,07,11,16,32,17.20
2008,07,11,16,33,17.20
2008,07,11,16,34,17.20
2008,07,11,16,35,17.20
2008,07,11,16,36,17.20
2008,07,11,16,37,17.20
2008,07,11,16,38,17.20
2008,07,11,16,39,17.20
2008,07,11,16,40,17.20
2008,07,11,16,41,17.20
2008,07,11,16,42,17.20
2008,07,11,16,43,17.20
2008,07,11,16,44,17.20
2008,07,11,16,45,17.20
2008,07,11,16,46,17.20
2008,07,11,16,47,17.20
2008,07,11,16,48,17.20
2008,07,11,16,49,17.20
2008,07,11,16,50,17.20
2008,07,11,16,51,17.20
2008,07,11,16,52,17.20
2008,07,11,16,53,17.70
2008,07,11,16,54,17.70
2008,07,11,16,55,17.70
2008,07,11,16,56,17.70
2008,07,11,16,57,17.70
2008,07,11,16,58,17.70
2008,07,11,16,59,17.70
2008,07,11,17,00,17.70
2008,07,11,17,01,17.70
2008,07,11,17,02,17.70
2008,07,11,17,03,17.70
2008,07,11,17,04,17.70
2008,07,11,17,05,17.70
2008,07,11,17,06,17.70
2008,07,11,17,07,17.70
2008,07,11,17,08,17.70
2008,07,11,17,09,17.80
2008,07,11,17,10,17.80
2008,07,11,17,11,17.80
2008,07,11,17,12,17.80
2008,07,11,17,13,17.80
2008,07,11,17,14,17.80
2008,07,11,17,15,17.80
2008,07,11,17,16,17.80
2008,07,11,17,17,17.80
2008,07,11,17,18,17.80
2008,07,11,17,19,17.80
2008,07,11,17,20,17.80
2008,07,11,17,21,17.80
2008,07,11,17,22,17.80
2008,07,11,17,23,17.80
2008,07,11,17,24,18.00
2008,07,11,17,25,18.00
2008,07,11,17,26,18.00
2008,07,11,17,27,18.00
2008,07,11,17,28,18.00
2008,07,11,17,29,18.00
2008,07,11,17,30,18.00
2008,07,11,17,31,18.00
2008,07,11,17,32,18.00
2008,07,11,17,33,18.00
2008,07,11,17,34,18.00
2008,07,11,17,35,18.00
2008,07,11,17,36,18.00
2008,07,11,17,37,18.00
2008,07,11,17,38,18.00
2008,07,11,17,39,18.00
2008,07,11,17,40,17.60
2008,07,11,17,41,17.60
2008,07,11,17,42,17.60
2008,07,11,17,43,17.60
2008,07,11,17,44,17.60
2008,07,11,17,45,17.60
2008,07,11,17,46,17.60
2008,07,11,17,47,17.60
2008,07,11,17,48,17.60
2008,07,11,17,49,17.60
2008,07,11,17,50,17.60
2008,07,11,17,51,17.60
2008,07,11,17,52,17.60
2008,07,11,17,53,17.60
2008,07,11,17,54,17.60
2008,07,11,17,55,18.00